RH
22 21 20 20 23 23 21 20 19 19 17 17 17 17 17 15 16 16 16 17 17 17 16 16 15 15 15 15 15 16 19 15 11 16 21 24 19 15 15 12 8 6 9 12 13 19 20 12 7 7 8 9 9 12 12 10 12 17 20 25 27 25 23 20 16 16 15 14 13 11 11 12 14 17 16 16 24 28 27 26 24 23 22 21 21 19 18 17
22 21 20 21 23 22 21 20 19 19 18 18 16 16 16 15 15 15 16 15 15 15 14 15 13 13 13 14 15 13 17 15 10 15 19 18 15 14 13 10 8 7 9 13 13 12 10 8 8 7 7 8 10 11 12 10 11 17 20 25 26 20 18 14 12 12 11 13 12 11 10 11 16 21 18 19 28 31 30 29 25 23 20 17 16 15 16 15
22 20 20 22 23 21 20 19 18 18 18 19 17 15 15 15 14 14 14 13 13 14 14 15 14 13 10 12 15 12 16 15 11 14 14 15 14 13 13 9 7 8 9 13 16 12 10 11 9 8 8 10 12 10 12 13 14 18 20 25 22 15 14 11 11 12 12 12 10 11 11 13 22 25 21 23 29 30 30 30 27 23 19 16 15 15 17 17
21 20 21 23 23 20 19 17 17 18 17 17 15 14 15 13 13 12 11 11 11 12 12 14 16 16 11 11 12 12 19 17 11 14 14 14 14 12 12 8 7 9 8 11 15 14 12 12 9 9 10 12 13 11 13 16 18 19 18 21 17 12 13 11 12 12 12 12 11 13 10 14 25 26 23 25 31 33 28 25 24 21 17 16 16 16 17 17
20 20 21 23 22 20 18 17 17 16 15 15 14 13 13 11 11 10 10 10 8 8 11 13 16 18 15 13 13 15 21 18 13 14 14 15 13 12 10 8 9 9 7 8 12 12 10 9 8 10 11 14 16 14 14 14 17 18 16 15 12 10 12 12 11 11 12 12 12 12 10 13 24 28 27 27 33 34 25 20 19 17 16 16 16 16 16 17
20 20 22 23 22 20 17 17 16 13 13 15 15 13 11 11 10 10 10 10 9 7 9 12 14 17 17 15 14 17 19 17 15 13 15 15 12 11 10 10 10 8 7 7 7 8 7 7 9 12 12 15 17 16 15 11 12 17 15 11 10 9 10 10 10 10 10 13 13 11 11 18 27 31 29 29 30 27 21 19 19 17 17 16 16 17 17 17
20 20 22 23 21 19 16 16 14 10 11 13 13 13 12 12 10 11 11 11 11 8 8 10 12 14 15 16 14 13 15 15 14 14 15 13 9 9 11 11 9 7 8 7 6 7 8 8 10 12 14 18 18 17 16 11 11 18 17 11 10 9 8 9 10 11 10 12 13 10 16 24 30 30 27 27 26 23 21 19 19 18 17 17 18 18 18 18
20 21 21 22 20 18 16 15 14 11 12 12 13 14 13 13 11 10 10 10 11 10 10 9 10 11 12 19 19 12 13 14 13 15 14 10 9 9 11 12 8 7 9 9 8 8 9 10 10 13 17 19 18 19 18 14 16 20 18 11 9 9 8 9 10 11 11 11 11 11 21 27 26 26 24 23 21 18 17 16 16 16 16 16 16 17 18 19
20 20 21 20 18 16 15 14 13 12 12 12 12 13 13 14 14 12 10 9 10 11 11 10 11 10 9 16 18 12 12 14 13 15 14 11 10 9 10 11 8 7 9 10 10 10 11 11 11 12 17 18 17 21 20 17 22 22 18 12 10 10 8 10 11 11 11 12 12 12 23 29 23 24 23 20 17 15 15 15 16 15 16 16 16 17 18 19
19 19 19 19 17 16 15 13 12 12 12 12 12 12 13 13 14 13 10 8 8 10 10 10 10 10 11 13 13 12 13 14 14 14 15 14 11 9 10 10 8 7 8 10 12 13 13 13 11 11 17 18 16 21 21 22 23 17 16 15 11 10 9 10 11 11 11 12 13 14 24 28 22 27 28 20 16 15 16 16 16 16 17 17 17 18 19 21
19 19 18 17 16 16 14 13 12 13 12 12 11 12 12 12 12 12 10 9 9 9 9 9 9 8 9 10 12 13 13 14 14 14 15 16 13 12 11 10 8 7 8 10 14 16 15 13 11 15 23 21 17 19 20 26 24 14 15 19 15 10 10 12 12 12 12 13 13 13 23 28 25 30 29 20 16 15 16 17 17 17 17 17 18 19 20 23
21 19 18 17 16 15 14 13 13 13 12 11 11 11 11 10 11 11 10 10 10 10 11 12 13 12 11 11 12 12 13 15 13 13 15 16 15 14 11 10 9 8 8 10 14 16 15 13 12 19 25 23 23 23 21 21 18 13 16 22 18 11 12 13 12 13 14 14 12 12 26 35 33 31 25 17 16 16 17 18 18 17 17 18 18 20 21 24
21 19 18 17 16 15 13 13 13 13 12 11 11 11 11 10 11 12 10 9 10 10 11 12 12 13 14 15 13 12 14 14 12 13 14 14 15 13 11 11 10 9 9 10 13 14 13 13 13 19 21 23 27 28 24 17 14 15 18 23 21 19 19 14 12 13 13 15 13 16 32 41 37 29 21 17 16 17 18 18 18 18 18 18 19 20 22 24
20 18 18 17 15 14 13 13 13 13 12 11 11 10 10 9 10 11 10 9 9 10 12 13 13 12 14 16 12 12 13 12 12 13 13 13 14 12 11 10 10 10 10 10 12 13 13 11 12 18 19 22 27 29 27 17 14 19 24 27 25 28 25 14 13 13 14 16 12 20 35 40 38 30 21 18 17 17 19 18 19 19 18 19 20 20 21 23
18 17 16 15 13 13 12 12 13 12 12 12 11 10 10 10 10 9 9 9 9 12 14 15 15 14 17 15 11 13 13 11 12 12 13 14 14 13 11 11 11 10 10 11 11 13 13 11 12 16 17 19 23 28 27 19 17 21 31 35 28 29 27 17 14 13 17 18 13 24 35 35 36 32 22 18 17 17 19 19 19 19 19 19 19 19 21 22
17 16 13 12 12 12 12 12 12 12 12 12 11 10 10 11 11 9 9 9 10 13 16 17 14 12 17 14 10 12 12 11 12 12 13 14 15 14 12 12 12 11 11 11 11 13 13 14 16 16 16 17 20 25 27 27 26 26 33 38 30 29 30 23 17 12 16 20 19 26 31 31 34 32 24 20 18 17 19 20 19 20 19 18 19 19 22 24
16 14 12 12 12 11 12 11 11 11 11 11 11 10 11 12 12 12 11 10 10 12 14 16 13 12 15 13 10 11 11 11 12 12 13 13 14 14 12 12 12 11 11 11 12 12 12 15 18 18 17 18 22 26 32 38 37 32 34 35 29 27 30 28 22 14 15 22 24 23 25 31 33 31 28 21 18 19 20 21 20 20 19 20 21 20 23 25
15 13 12 11 11 11 11 11 12 12 11 12 11 11 11 12 13 13 14 17 20 18 15 15 16 19 17 12 12 12 11 12 11 12 13 13 13 14 13 11 11 11 10 13 15 13 14 17 17 20 22 22 24 29 38 42 39 38 38 36 31 28 29 29 24 18 18 25 27 22 24 32 33 31 30 24 19 20 20 20 20 20 20 20 21 23 26 25
13 12 11 12 12 12 12 11 12 11 11 12 13 15 15 18 18 15 15 21 27 29 26 22 20 22 18 13 13 12 12 12 11 12 13 13 13 14 13 11 12 14 16 21 20 16 18 22 23 27 31 29 26 28 33 31 31 36 36 34 34 32 31 26 20 20 23 26 27 24 24 31 34 34 32 26 20 20 20 20 20 21 20 20 23 26 26 24
14 12 13 13 13 14 12 11 11 11 11 11 15 21 26 28 23 19 22 23 24 26 27 24 18 16 14 13 13 13 13 11 10 12 13 15 14 13 12 12 14 18 26 33 28 20 20 28 33 33 32 28 23 22 23 22 26 32 32 30 32 33 30 23 19 21 26 30 27 23 25 30 33 33 32 27 22 21 21 21 22 22 22 23 26 27 25 23
14 13 14 14 13 12 11 11 11 11 11 12 18 24 32 39 31 24 29 29 25 21 19 18 14 13 14 13 14 15 14 10 10 12 13 15 14 15 15 16 19 22 29 36 31 22 23 33 36 29 24 22 22 22 22 27 31 30 30 30 32 32 28 22 22 22 22 29 29 21 23 30 32 31 30 27 24 23 22 22 23 22 25 27 26 26 25 25
13 13 12 12 11 11 11 12 12 15 17 18 23 26 30 39 32 25 28 28 28 23 18 16 13 13 14 13 14 15 14 12 11 12 14 15 14 20 25 21 23 25 26 31 31 27 30 35 28 22 22 21 23 25 26 32 33 29 27 32 34 32 30 27 25 25 21 26 30 23 24 30 31 30 29 25 24 24 22 24 26 26 28 27 25 26 26 26
11 11 10 11 11 12 11 10 13 20 25 22 22 25 25 26 23 25 29 27 30 29 22 20 15 14 14 13 15 14 13 15 15 13 15 16 16 25 31 24 26 29 25 25 27 28 33 30 21 22 26 23 23 26 29 33 34 32 30 34 37 33 37 38 31 27 25 27 31 25 27 34 32 29 27 25 25 25 25 28 30 31 30 27 26 27 27 25
12 11 12 13 12 13 11 10 12 14 18 16 15 18 19 19 17 23 32 29 31 31 23 21 17 15 16 15 16 16 15 16 15 15 16 19 22 24 27 27 30 32 31 30 29 30 31 23 19 27 26 21 25 30 33 34 34 35 33 33 36 34 36 38 33 29 27 32 35 25 27 36 34 32 31 28 27 27 27 29 30 30 29 27 27 25 25 24
13 12 13 13 13 15 11 13 13 9 17 19 14 15 13 16 15 17 32 33 29 30 27 24 18 16 18 15 16 18 17 17 15 15 18 21 27 27 27 28 29 33 37 35 31 34 33 21 21 30 25 22 30 33 34 36 35 35 33 31 33 33 35 36 35 35 33 35 33 25 31 38 34 33 33 31 31 29 29 32 31 30 27 27 28 24 23 22
12 12 11 10 13 13 13 22 14 9 30 30 15 14 12 16 14 15 35 36 26 31 32 26 20 19 19 16 18 21 24 24 16 14 19 22 27 33 33 28 25 33 37 35 34 35 30 22 24 30 28 28 31 32 32 34 38 37 32 32 33 33 40 41 38 42 42 35 27 25 34 39 36 34 32 32 33 30 29 33 32 30 28 28 27 23 22 20
10 10 9 9 10 10 19 28 14 16 42 34 12 12 14 16 13 18 39 36 28 34 32 24 21 22 20 16 18 24 31 30 19 14 20 22 24 30 37 33 30 34 37 41 41 36 32 30 30 32 31 31 30 32 30 30 40 41 31 32 35 35 40 39 38 41 36 29 28 26 28 34 34 31 32 32 33 33 32 33 32 30 31 29 25 22 20 18
10 9 9 10 9 9 16 16 14 29 40 24 12 14 16 16 16 30 40 29 25 31 28 26 23 19 22 21 19 24 30 29 25 21 19 21 22 27 35 35 34 37 39 43 41 36 37 36 36 39 35 31 30 30 28 28 37 37 31 34 35 35 36 35 37 36 28 32 39 28 24 37 36 28 35 37 35 36 35 37 38 35 34 31 25 21 16 14
9 9 8 8 8 9 10 9 20 33 23 11 15 16 14 15 24 40 35 22 28 32 28 29 24 21 29 31 26 28 29 27 29 27 21 21 20 24 34 35 35 39 38 39 39 40 40 35 38 42 34 29 30 29 28 31 33 31 32 35 34 35 36 36 35 30 31 43 45 28 23 39 40 27 32 38 36 40 41 41 42 38 35 30 23 20 16 14
8 9 7 9 13 13 11 12 17 20 14 13 18 16 15 23 35 38 24 20 35 39 33 31 27 29 37 38 34 32 32 31 32 30 27 26 22 24 35 39 38 40 39 41 46 46 42 41 44 41 30 27 30 30 32 34 33 33 33 31 30 31 28 29 27 27 40 45 36 27 23 35 45 32 27 37 39 43 47 45 42 38 32 27 21 20 19 17
8 9 7 10 17 16 20 26 18 11 15 16 16 18 26 36 37 27 21 31 40 36 36 40 38 37 39 39 36 33 37 36 33 35 35 30 27 27 32 38 42 41 37 40 48 50 47 46 47 40 32 31 33 31 33 37 36 35 32 27 32 34 26 28 28 31 49 47 30 26 24 34 47 36 31 42 41 37 44 47 43 38 31 25 22 19 18 18
10 11 10 10 14 12 23 33 20 12 16 15 19 30 37 38 30 22 26 37 40 35 39 47 44 38 38 39 36 38 41 35 30 40 45 36 35 39 36 39 47 45 36 33 40 47 49 45 44 44 37 33 33 28 29 37 35 29 27 30 42 46 40 43 43 45 56 50 32 26 31 41 39 29 32 40 38 35 39 42 39 35 28 23 21 19 18 18
13 14 12 12 14 13 19 23 15 15 18 17 26 36 35 28 27 33 32 29 36 42 46 50 41 35 39 38 36 40 41 36 34 38 42 36 35 43 42 40 46 47 38 32 31 37 46 45 41 45 41 30 26 24 27 34 33 28 28 35 49 53 56 61 55 55 59 47 33 26 34 46 36 29 33 31 32 36 34 35 35 31 26 21 20 19 18 18
15 15 14 15 16 16 17 16 16 19 18 23 35 37 28 22 28 39 35 30 40 45 48 48 37 36 41 35 33 39 38 39 40 37 35 30 27 33 38 39 44 45 42 39 33 35 44 45 41 42 37 28 27 27 30 35 36 32 25 30 46 49 56 65 59 61 65 53 41 33 35 45 40 36 34 27 30 34 32 34 34 29 24 21 20 18 17 18
17 15 15 16 17 19 18 18 20 19 21 33 39 33 27 23 25 30 32 37 41 42 49 50 40 37 39 35 34 40 44 41 38 37 35 30 28 32 35 37 41 45 50 49 40 37 40 41 42 40 30 26 30 30 32 38 38 30 23 31 46 42 40 54 55 51 59 62 51 40 37 35 31 33 32 30 35 34 31 32 28 25 22 20 19 16 15 18
19 19 17 17 20 20 19 22 22 18 27 41 38 33 33 31 32 36 42 48 43 41 48 47 42 35 29 33 35 37 47 44 33 33 35 35 37 35 35 40 42 44 50 50 42 39 40 41 42 41 33 26 28 31 35 40 36 28 31 37 40 35 32 51 59 41 49 70 56 40 42 35 32 38 33 32 38 33 29 27 23 21 19 18 17 15 15 18
19 23 20 18 20 20 18 22 21 20 35 45 37 34 35 34 40 47 52 53 48 45 41 35 41 38 24 26 29 30 40 42 33 30 31 39 43 38 37 42 43 40 43 51 48 39 40 46 41 41 45 35 29 35 38 40 39 33 36 35 33 40 39 43 59 57 62 75 57 41 49 51 52 51 35 31 39 34 25 23 20 19 17 15 14 12 15 18
22 26 27 20 16 19 20 18 19 26 39 43 37 35 36 39 47 54 58 57 52 47 36 28 40 41 26 23 25 27 34 36 32 29 27 35 43 43 40 40 43 40 39 51 53 38 40 52 42 35 45 40 32 40 39 37 41 36 33 31 35 56 60 44 55 72 78 78 64 50 53 56 55 49 38 35 37 32 25 20 20 19 17 15 12 11 14 16
28 35 37 23 13 18 19 16 22 32 37 36 37 38 42 50 56 60 67 66 57 46 35 31 38 37 31 31 30 31 36 33 27 26 27 30 39 47 43 39 45 46 40 45 48 39 40 51 44 32 38 40 33 38 39 37 43 39 34 33 33 46 55 48 50 62 73 81 78 68 64 58 43 35 39 38 30 27 25 21 20 20 17 14 11 11 13 16
33 41 40 19 11 18 19 23 34 43 44 43 42 43 47 57 62 65 71 71 61 46 35 33 33 31 34 39 36 32 34 32 26 26 27 29 37 45 44 39 41 45 45 43 43 40 38 43 45 39 39 41 36 34 31 29 37 41 40 42 42 41 46 51 52 54 65 80 83 81 78 61 36 29 35 32 25 25 23 20 21 19 17 14 11 12 13 15
30 40 42 19 10 18 24 33 40 42 42 42 44 48 52 57 62 65 71 78 71 53 42 41 36 31 32 36 36 33 29 26 25 26 26 27 33 42 51 52 46 46 48 44 42 43 39 39 44 43 39 38 35 29 27 28 30 33 38 40 43 49 54 60 62 62 68 73 73 80 84 62 36 29 29 24 24 24 21 20 21 19 16 12 11 14 15 15
32 38 39 17 8 19 35 45 44 39 41 46 52 56 56 54 57 61 66 75 73 53 42 44 41 37 36 37 37 36 31 26 25 28 28 30 38 49 60 63 56 54 51 45 44 42 40 44 49 47 39 36 33 28 31 39 34 29 33 31 35 50 55 58 64 66 68 65 58 70 83 65 37 25 23 23 25 24 21 22 21 18 15 11 11 15 14 15
42 39 30 15 10 24 43 51 48 47 51 55 59 58 55 50 51 56 58 60 58 44 38 45 47 43 42 42 37 34 35 31 28 32 29 31 49 65 68 67 63 56 51 48 45 42 46 51 52 49 40 34 34 28 30 39 37 33 34 29 36 50 49 51 62 65 69 68 62 75 88 67 36 26 24 25 26 26 23 22 21 18 13 10 12 13 12 14
42 37 32 21 12 23 44 50 48 52 52 51 54 54 51 48 49 54 52 48 47 39 36 44 47 44 46 46 38 36 40 35 33 38 30 28 55 74 70 70 68 54 51 59 54 49 52 48 45 53 51 46 46 41 39 41 34 33 34 30 37 47 50 57 63 67 76 71 64 82 91 61 33 29 28 26 28 29 25 22 21 18 12 10 12 11 11 14
34 34 36 27 18 29 50 51 47 51 53 50 50 50 48 48 54 58 54 50 49 42 39 46 46 43 47 48 40 37 38 34 34 38 29 31 61 79 73 74 72 56 56 69 61 53 56 46 39 52 60 61 61 56 51 46 37 33 34 35 44 55 63 62 60 71 82 68 61 78 78 50 32 32 31 30 33 32 27 23 22 17 12 11 12 11 10 14
35 36 36 35 33 39 49 48 43 47 51 50 47 45 45 48 52 55 53 50 50 45 42 47 46 41 45 50 45 38 38 38 36 34 29 33 54 71 74 76 74 65 67 74 62 49 52 49 39 41 49 53 54 48 41 39 39 39 40 45 56 64 65 59 57 66 69 62 62 62 56 49 42 36 34 35 36 34 28 25 24 17 11 11 12 12 13 15
42 41 41 44 45 44 44 42 40 45 46 43 40 41 45 49 48 47 46 48 52 49 43 42 45 43 45 48 45 41 43 44 39 33 30 32 44 60 71 72 69 72 77 74 58 45 49 57 53 47 46 45 42 37 35 37 39 39 41 51 63 70 69 64 63 58 51 59 64 47 41 51 47 36 36 39 38 34 28 27 25 16 11 11 11 13 15 15
41 44 48 49 50 48 45 42 41 47 46 40 39 43 47 49 48 47 46 48 50 48 44 44 48 48 46 43 39 38 44 45 42 41 37 35 41 52 63 66 67 77 79 62 46 45 52 60 62 56 50 44 40 37 36 38 38 37 39 45 54 70 76 69 62 54 48 59 61 42 39 48 42 35 38 38 36 32 28 28 23 14 11 11 12 13 13 15
42 45 46 49 49 44 44 44 44 47 45 38 37 42 46 47 49 49 45 45 46 46 45 45 47 49 45 41 37 35 38 40 40 45 50 50 49 47 52 61 69 75 66 46 41 49 55 60 62 60 57 50 45 44 42 42 41 40 41 38 39 54 69 68 62 54 51 55 50 42 46 48 40 37 38 35 33 29 27 27 21 14 12 12 13 14 14 18
48 47 42 45 43 36 37 42 43 44 40 36 38 43 44 46 50 50 44 44 45 43 41 40 46 51 47 42 41 38 40 42 37 37 47 55 57 53 49 51 60 62 49 37 43 49 51 59 58 56 61 56 44 44 47 46 42 38 37 35 32 37 49 58 60 57 58 60 53 50 59 56 43 38 38 34 30 28 30 30 23 14 12 13 15 15 17 22
36 38 37 43 41 34 34 37 41 42 35 34 41 42 41 43 47 49 49 52 52 48 45 44 47 55 54 48 48 47 48 51 47 43 45 46 47 49 47 42 48 56 50 44 49 50 51 58 53 52 64 57 40 41 43 38 40 44 43 39 35 35 40 44 49 52 56 59 59 61 65 59 44 36 35 31 29 31 33 31 24 15 11 14 16 17 20 24
29 32 35 46 44 34 35 37 37 38 39 44 49 47 45 46 46 45 44 50 57 59 61 58 51 51 54 55 58 61 61 59 56 53 50 44 41 42 45 48 49 55 58 56 58 57 56 58 54 55 65 58 41 39 40 41 51 57 51 45 39 37 39 38 38 41 41 46 55 60 56 46 38 34 34 33 32 34 35 31 23 15 12 15 15 17 21 23
Wind_Speed
5 5 6 7 9 9 9 7 8 9 11 11 9 7 7 7 7 5 3 1 1 2 3 4 4 3 1 0 1 2 4 13 23 28 25 18 20 18 19 20 20 21 16 13 14 8 3 3 3 4 4 2 1 2 3 4 4 3 1 4 6 5 6 7 8 7 6 8 10 12 12 12 10 8 6 5 14 14 11 13 13 16 16 14 13 12 12 12
5 6 7 8 8 9 8 7 7 8 10 10 9 7 7 6 6 4 2 1 3 4 6 8 8 5 6 4 3 2 2 11 24 25 23 21 19 18 19 20 19 20 19 15 14 13 8 5 7 6 1 3 2 3 4 4 5 3 3 5 5 4 6 7 9 8 7 8 10 10 11 12 11 10 8 7 12 14 12 10 12 14 13 14 15 16 17 19
6 7 8 8 8 9 8 7 7 8 9 9 8 8 8 7 6 5 5 5 5 5 7 10 11 4 7 8 6 4 5 8 21 20 23 23 19 19 19 20 20 19 19 15 11 10 6 4 7 5 4 4 3 6 6 5 4 4 4 4 4 4 8 9 9 8 7 8 10 10 11 10 14 12 7 7 12 16 14 9 10 12 11 11 13 17 18 19
7 8 8 8 8 9 7 7 8 9 9 8 7 9 10 10 9 8 5 3 5 5 6 7 10 9 2 7 6 3 6 3 12 17 24 23 19 19 18 19 19 19 20 16 10 9 7 4 4 3 5 4 4 7 6 4 3 4 5 4 4 4 7 9 8 7 7 7 9 9 11 8 13 13 10 9 10 11 11 10 10 10 10 10 12 15 16 17
8 8 8 8 8 9 8 8 10 10 10 9 9 11 12 13 12 10 10 7 6 2 4 7 8 11 10 5 2 5 5 1 8 19 24 22 19 17 17 18 18 20 21 15 8 8 5 3 0 3 5 4 5 5 5 5 3 4 6 5 5 5 6 6 6 6 6 6 8 9 13 8 11 13 13 13 10 6 7 10 10 10 11 11 11 13 15 16
9 8 7 8 8 8 8 9 11 13 14 15 15 14 14 12 10 11 15 14 9 4 5 7 9 11 15 16 11 4 1 2 8 20 23 20 17 16 15 16 18 19 19 15 12 12 9 4 3 4 5 5 6 6 5 8 6 3 5 5 6 6 5 4 6 8 7 6 8 11 11 6 13 12 11 14 12 7 8 11 11 12 13 13 13 12 13 14
9 8 7 7 7 8 9 10 12 14 16 17 16 14 13 10 8 10 14 16 15 9 5 4 5 9 11 15 18 16 10 6 11 19 21 17 15 16 13 15 18 18 19 21 16 12 11 9 7 5 5 4 5 6 6 9 9 4 4 4 4 5 6 5 7 10 9 7 9 12 7 9 13 10 9 13 11 8 10 12 13 14 14 13 12 12 12 12
8 7 6 6 7 8 9 10 11 11 10 9 10 11 11 10 10 10 12 14 14 13 9 5 3 4 4 4 7 12 9 7 14 18 18 16 17 15 12 14 17 18 20 22 18 13 9 9 9 4 4 5 5 6 5 6 7 5 3 2 4 4 6 6 8 12 9 6 9 11 8 12 13 12 10 11 10 8 10 12 13 13 12 12 10 11 11 11
7 6 6 6 6 8 9 9 9 8 5 5 7 9 9 9 9 10 13 13 12 13 13 13 9 4 3 2 1 7 6 9 14 16 14 15 16 15 15 16 16 17 20 19 19 16 9 8 8 5 6 6 6 7 6 5 4 4 1 1 5 5 5 6 8 11 7 5 11 12 9 14 13 13 9 10 9 8 10 10 10 10 10 8 8 10 10 10
7 6 5 5 6 8 8 8 7 6 5 4 5 6 7 8 9 10 12 13 13 15 18 20 18 15 11 4 4 7 6 10 12 13 12 13 15 17 19 18 15 16 18 17 18 16 10 9 8 3 6 6 6 6 6 6 1 1 0 3 4 5 4 5 7 8 6 6 12 11 9 11 7 7 5 7 7 8 9 8 8 7 7 7 7 8 8 8
6 5 5 5 6 7 7 7 6 6 6 5 3 4 5 6 7 8 11 14 15 15 17 18 20 25 25 15 9 6 7 10 12 13 11 10 13 17 17 17 15 14 15 15 16 15 14 16 10 3 4 2 4 5 4 2 2 2 2 3 1 4 5 5 7 8 6 6 10 8 8 9 6 6 6 7 7 8 8 8 7 6 6 6 6 7 7 7
5 5 5 5 6 6 7 7 7 7 7 4 3 4 5 5 5 6 9 13 13 13 14 14 13 13 17 17 10 5 6 9 12 13 12 9 9 13 13 13 15 13 13 13 13 15 15 17 17 9 2 1 2 3 2 2 2 4 1 2 3 2 3 5 6 6 5 5 10 7 4 6 6 7 8 8 7 8 7 7 6 5 5 4 4 5 6 5
5 5 5 5 6 6 7 7 8 9 7 6 5 5 5 5 4 4 5 8 9 10 11 16 17 9 7 9 7 7 7 9 13 13 14 10 6 9 11 11 12 12 13 12 12 15 14 14 16 12 5 2 2 1 1 3 1 6 3 1 4 4 2 4 5 6 5 5 10 8 0 3 6 8 8 8 7 8 6 5 5 4 4 3 3 2 3 3
5 6 6 5 5 7 8 8 9 8 8 7 7 7 8 8 7 6 5 6 7 7 7 12 14 12 10 6 5 12 12 10 15 15 16 13 8 8 9 10 11 10 12 12 11 14 16 14 12 9 5 4 3 1 2 1 4 6 3 2 3 3 4 5 5 8 7 5 11 8 2 1 6 8 8 7 7 8 6 4 4 3 3 3 2 2 2 2
6 6 5 5 6 8 8 8 8 6 6 6 7 8 9 9 10 10 9 9 9 9 7 6 5 5 7 5 4 11 15 14 17 17 15 13 10 8 7 7 9 8 8 9 7 8 15 16 11 7 6 5 3 1 2 2 5 5 2 2 3 2 5 6 5 9 7 5 10 7 2 2 6 7 8 7 6 7 5 4 4 3 3 3 2 2 2 2
6 6 6 7 8 8 8 8 7 6 5 5 4 4 4 5 7 8 9 10 11 11 7 6 8 3 5 4 2 6 14 15 15 16 13 10 10 7 3 2 3 3 3 6 5 2 8 10 7 7 8 8 6 3 1 3 4 4 3 2 4 4 5 5 4 8 7 5 8 6 3 2 5 7 7 6 6 6 5 4 3 3 3 2 2 2 1 3
5 6 8 10 12 13 14 15 15 14 14 12 9 6 5 5 5 5 4 4 6 10 9 8 8 7 6 4 1 5 11 12 13 16 13 8 8 8 3 1 1 1 1 8 12 4 4 5 2 4 7 8 8 6 3 3 4 3 4 3 4 6 6 5 4 6 7 5 7 7 3 4 6 7 7 6 6 5 4 4 4 3 2 2 2 3 2 5
5 9 13 16 18 20 21 21 20 19 18 17 15 15 16 17 16 15 12 6 1 3 7 10 8 5 5 7 4 7 10 9 11 17 13 6 7 9 5 3 2 4 4 4 11 8 4 4 3 5 7 7 7 6 5 2 4 3 4 4 5 7 6 6 7 6 7 6 5 7 3 6 7 6 7 5 5 5 4 4 3 2 2 3 3 4 5 7
8 13 18 20 20 19 17 13 10 8 6 5 6 7 9 12 16 22 25 18 7 1 2 6 6 4 2 6 8 9 8 5 9 18 17 10 10 11 6 3 3 2 1 1 7 8 4 3 5 6 6 6 7 7 5 3 5 4 4 3 5 8 5 6 9 7 7 7 4 6 3 6 7 6 7 5 5 4 4 4 2 2 2 3 4 5 7 8
11 16 17 15 12 10 7 4 5 6 6 4 4 4 2 0 4 10 16 17 10 6 5 5 6 7 4 4 9 11 6 2 10 18 21 17 13 10 6 2 1 5 3 1 4 6 5 6 6 6 5 6 6 7 8 7 4 4 4 3 6 7 6 7 9 7 7 5 4 6 3 6 7 5 6 5 4 4 4 3 2 2 2 3 4 8 9 8
12 13 12 8 5 3 2 6 8 8 6 3 2 3 1 1 2 2 2 8 8 7 8 7 8 8 3 3 9 11 4 3 13 18 24 20 9 5 6 4 2 4 3 2 3 3 6 8 5 5 6 4 3 5 10 9 4 3 1 4 6 5 7 11 9 6 7 5 4 6 3 5 6 4 5 5 5 4 3 3 2 1 2 4 6 9 9 8
10 10 8 4 1 2 5 6 4 4 6 6 4 3 3 3 8 9 4 5 4 7 6 8 9 8 3 3 9 11 3 4 11 17 25 22 10 3 4 4 6 5 5 3 2 2 6 6 4 5 6 5 1 3 11 12 4 2 1 4 5 5 7 9 7 8 9 5 3 5 4 4 6 4 4 4 3 3 2 1 1 2 3 5 6 8 9 10
8 6 5 2 1 3 3 3 4 8 9 7 7 7 6 8 13 10 2 4 3 4 4 6 8 7 4 4 10 11 7 7 7 11 21 17 7 4 4 4 7 6 6 6 4 3 4 3 5 5 6 6 4 7 10 10 4 2 3 5 5 7 7 5 6 11 11 5 3 4 2 3 5 4 3 3 2 2 2 2 2 4 5 6 6 7 9 11
5 4 3 1 1 2 4 5 4 7 9 9 10 9 9 9 8 4 0 2 2 1 2 2 4 6 4 2 8 8 7 7 5 8 17 13 5 3 3 3 4 4 5 7 8 7 4 1 5 5 4 7 5 6 8 7 4 1 2 5 6 8 8 7 8 11 11 5 2 3 2 3 4 5 4 3 2 3 3 2 4 6 6 6 6 8 10 11
3 2 1 0 0 1 3 4 4 8 9 8 9 10 9 6 1 1 1 1 2 2 1 0 1 3 3 3 8 4 2 4 5 9 12 10 6 3 1 1 1 3 3 4 6 6 3 1 3 5 5 8 5 4 5 5 4 2 1 6 7 9 10 10 10 9 7 3 1 4 4 2 5 7 5 4 4 4 4 4 6 7 6 5 7 9 10 12
2 2 1 1 1 0 1 0 4 7 5 4 7 8 6 2 1 2 1 1 2 0 0 0 0 3 5 7 8 0 2 2 4 10 11 9 6 0 1 1 1 3 1 1 2 2 2 1 2 4 5 7 5 2 3 4 4 4 4 7 8 9 9 10 10 6 3 4 4 3 4 4 2 6 6 5 6 6 5 6 6 5 4 6 7 9 11 12
2 1 1 2 2 2 2 1 5 4 1 3 7 7 3 0 1 2 1 1 0 1 1 2 2 4 5 8 8 2 2 3 2 9 12 10 6 2 0 3 1 2 2 2 2 0 2 3 4 5 4 5 4 2 3 4 2 5 7 10 10 9 10 10 8 5 3 5 6 1 4 6 4 3 6 7 6 6 5 5 3 3 5 7 9 10 11 11
1 2 2 3 3 2 1 2 5 2 1 4 7 5 2 1 2 2 0 1 1 2 1 2 1 4 3 6 9 5 1 4 1 6 11 9 6 1 1 3 2 2 2 1 0 0 1 3 3 3 3 3 3 4 3 1 1 6 9 12 12 10 11 8 5 5 3 3 4 3 6 5 5 1 4 6 5 6 4 2 3 5 6 9 11 10 10 11
1 2 3 3 2 1 1 2 3 3 1 5 6 4 2 2 1 1 0 2 0 1 1 0 0 3 3 3 7 6 2 3 1 5 9 5 5 3 2 2 2 2 4 3 2 2 1 2 1 0 1 2 4 6 5 1 3 8 10 12 12 10 8 6 4 4 4 2 2 5 7 4 6 2 3 4 4 4 1 2 4 5 6 8 9 9 10 11
1 2 3 2 1 1 2 2 2 2 3 5 5 3 1 1 0 1 0 2 1 1 1 1 1 2 4 1 3 5 4 4 3 4 4 1 5 5 2 1 2 2 2 4 4 3 2 2 1 1 1 2 6 7 5 5 8 8 8 10 10 7 5 3 3 2 2 2 0 6 7 4 4 1 3 2 3 2 1 3 4 5 6 8 8 9 10 9
2 2 2 2 2 2 1 1 3 4 5 5 4 2 0 0 0 0 1 1 1 0 1 2 0 2 3 2 2 4 3 3 3 4 3 1 4 7 3 2 3 1 1 1 3 2 2 1 0 1 1 2 6 7 4 7 8 6 5 7 6 3 2 1 1 2 1 3 1 6 7 3 4 2 3 3 3 3 1 3 5 6 7 7 7 9 8 7
5 4 3 2 2 3 1 2 5 6 6 5 4 1 0 1 1 1 1 1 0 1 0 1 1 0 1 2 2 3 2 1 3 2 1 2 4 6 6 4 4 2 1 1 2 1 2 1 1 1 0 1 4 5 1 3 4 5 5 5 5 2 2 3 2 1 1 4 1 8 9 3 5 2 3 4 5 4 3 3 5 6 6 8 8 9 7 6
9 7 4 3 1 1 2 5 6 7 6 5 2 1 1 1 1 1 1 1 1 1 0 1 0 1 1 1 2 2 0 1 3 1 1 1 4 4 6 7 5 2 1 3 4 2 1 1 0 1 0 1 3 4 1 1 4 5 5 6 4 3 4 4 4 3 3 4 5 11 9 4 5 2 2 3 5 5 4 4 5 3 5 8 8 7 6 6
12 9 6 6 5 5 5 6 7 6 5 2 0 1 1 1 1 0 0 1 0 1 1 0 1 1 1 2 1 1 1 1 3 4 3 2 3 3 3 6 7 3 2 3 3 1 2 1 1 0 1 1 2 2 1 2 3 3 3 4 3 3 2 2 3 4 6 7 9 9 5 3 6 2 4 4 4 4 5 5 5 3 5 7 6 5 6 5
10 10 8 8 7 6 5 5 6 4 2 1 1 1 1 1 1 0 1 2 1 2 2 0 1 1 2 2 1 0 1 1 1 3 4 3 2 2 2 3 6 4 2 2 1 1 3 2 1 1 2 1 2 0 2 2 2 2 1 2 2 2 1 2 4 6 7 8 8 4 2 3 3 1 5 4 4 4 5 4 4 6 7 7 6 5 5 4
8 10 8 7 6 3 3 4 4 3 1 1 1 2 1 1 1 1 0 1 1 1 2 2 1 1 1 2 0 1 1 1 0 1 2 2 2 1 1 1 3 4 2 1 1 1 3 2 3 2 3 3 2 0 2 2 1 2 2 1 1 1 2 2 5 6 5 5 5 3 4 5 2 0 4 5 4 5 5 3 4 6 8 8 5 5 5 4
4 6 7 8 6 1 2 3 3 1 1 1 0 1 1 0 1 1 1 1 1 1 1 2 1 1 1 1 1 0 1 1 0 0 1 1 0 1 1 1 1 3 3 2 0 1 1 3 4 4 1 1 1 3 3 4 2 1 0 2 1 3 2 1 3 3 3 4 4 3 6 8 5 2 3 3 5 7 4 3 4 6 8 8 5 5 6 5
1 2 3 8 6 1 2 2 2 1 1 1 1 1 0 0 1 1 2 2 0 0 1 1 0 1 1 0 1 0 2 1 0 0 1 1 1 1 0 1 1 1 2 2 1 1 1 2 3 3 3 2 1 3 2 3 5 2 2 1 1 2 0 2 1 2 3 5 5 3 5 7 5 3 5 7 8 7 6 5 6 8 9 9 6 6 6 5
1 2 1 6 5 0 2 2 1 1 2 1 2 1 0 1 1 2 2 2 1 1 0 1 1 1 1 1 1 0 1 2 1 1 1 0 1 1 1 0 1 2 2 2 1 1 0 0 2 1 4 4 2 1 1 1 3 3 2 1 1 1 2 1 1 1 2 4 6 5 6 6 4 2 7 9 7 7 8 7 7 9 10 9 7 5 7 6
1 1 1 4 2 3 4 2 1 1 1 0 1 1 0 1 2 1 2 1 1 1 0 1 1 1 1 0 1 0 1 0 1 1 0 0 1 1 1 1 1 2 2 2 1 2 1 1 2 1 3 3 2 1 1 2 3 1 1 1 0 0 1 1 1 1 2 1 3 5 8 7 4 3 5 7 6 6 6 6 7 8 9 9 6 5 6 6
1 1 1 3 2 4 4 4 3 2 2 2 2 2 1 1 2 2 1 0 1 2 0 1 2 2 1 0 0 0 1 1 0 0 0 1 0 0 1 1 1 2 2 1 0 2 1 2 3 3 2 1 1 2 4 2 4 4 2 2 2 2 1 1 2 1 2 2 2 3 9 10 5 2 4 4 5 5 4 5 7 8 8 8 6 4 5 5
1 2 2 3 3 2 3 4 3 2 2 1 1 2 1 1 2 1 1 1 1 2 1 1 2 2 2 1 0 0 1 1 1 0 0 1 1 1 0 1 2 3 1 0 1 1 1 1 3 5 4 0 2 3 6 6 4 4 2 2 3 3 3 2 3 1 1 1 1 2 6 8 4 4 3 2 4 4 4 5 7 8 7 7 5 5 5 5
0 1 3 3 3 1 2 2 2 3 3 1 1 1 2 0 2 1 2 2 1 2 0 1 2 2 2 1 0 1 0 0 0 1 1 2 2 2 2 2 3 2 1 0 1 2 1 1 3 5 3 1 1 3 4 6 4 2 2 3 3 3 3 3 1 0 0 2 1 2 5 7 4 3 1 3 5 5 4 4 6 7 6 6 6 5 5 4
1 1 3 4 2 2 1 1 2 3 2 2 2 1 1 1 2 1 1 1 1 2 1 2 1 2 2 2 1 1 1 0 1 1 1 1 1 0 1 3 2 1 1 0 1 1 0 1 1 4 4 2 2 3 3 3 1 2 2 4 4 4 5 3 3 3 0 4 5 3 6 8 4 3 5 6 7 7 4 3 5 6 6 6 5 4 4 4
1 1 1 3 5 3 1 1 2 4 3 3 3 2 2 1 1 1 1 1 1 2 1 2 1 2 2 1 1 1 1 0 0 1 1 1 2 1 1 2 1 1 2 2 1 1 1 2 1 2 4 5 5 4 4 3 2 2 3 5 5 6 8 4 2 2 2 5 7 5 8 12 11 10 10 8 9 9 5 4 5 5 6 6 4 4 4 4
1 1 1 1 3 3 2 1 2 5 5 4 3 2 3 2 1 1 1 1 1 1 1 1 1 1 2 1 1 1 2 1 1 0 1 1 2 2 2 4 2 2 4 3 1 0 1 3 3 4 5 5 6 8 8 6 6 7 4 6 6 7 8 4 2 3 4 3 6 10 12 16 19 16 12 10 10 9 6 6 6 6 6 6 4 4 4 4
0 0 1 1 1 2 2 1 3 4 4 4 2 3 4 3 2 2 1 1 0 1 1 1 0 2 3 2 2 3 3 2 1 1 1 1 2 2 3 4 3 4 5 3 1 1 1 3 3 4 7 8 9 12 13 10 9 11 9 7 8 8 8 7 7 9 3 1 8 12 10 14 20 17 14 13 10 7 6 7 7 6 6 6 4 5 6 6
0 1 1 0 0 0 1 1 3 3 3 3 1 2 5 4 3 3 1 1 1 1 1 1 2 4 3 2 1 2 3 2 2 2 1 1 2 3 3 3 3 6 6 3 3 2 1 4 1 1 7 10 11 14 15 11 11 11 10 9 8 10 12 12 13 13 5 4 13 15 11 15 20 18 16 13 9 6 6 6 5 5 6 6 5 6 6 6
2 2 0 1 1 1 1 1 2 4 4 3 1 2 5 6 5 2 1 1 1 2 2 1 3 6 4 2 1 1 3 2 2 2 2 2 2 2 3 2 3 5 5 3 3 2 1 2 1 1 7 12 13 14 13 10 10 10 10 11 9 10 14 15 14 13 10 13 18 19 19 20 19 18 16 11 7 5 5 5 5 6 6 6 6 7 7 5
1 2 1 1 2 3 1 1 2 4 2 1 1 2 4 6 6 2 1 2 2 3 3 2 3 5 4 4 2 1 1 1 1 2 3 4 3 3 3 2 3 4 4 3 2 1 1 0 1 0 6 10 11 10 9 8 9 11 11 11 10 10 11 13 13 10 10 14 17 17 18 19 15 12 11 8 5 5 6 7 6 6 6 6 6 7 6 5
1 2 3 3 3 1 1 0 1 2 2 1 2 3 3 6 7 4 2 1 1 2 2 2 5 6 3 2 4 2 2 3 2 2 2 3 2 2 2 1 3 5 4 2 2 2 2 1 1 1 4 8 5 5 9 10 10 11 13 12 12 11 9 10 9 8 9 11 13 11 12 13 9 5 6 6 5 7 9 8 7 6 5 6 7 7 6 5
3 2 1 2 2 1 1 1 0 1 1 1 1 3 2 3 7 6 3 1 1 2 1 1 3 4 2 3 4 2 3 3 3 3 2 1 0 1 3 3 3 4 5 4 2 1 2 1 2 1 3 6 5 8 12 11 8 7 8 8 10 10 9 9 8 9 11 10 8 8 11 11 8 6 8 10 8 7 8 7 6 6 5 6 6 6 5 5
Wind_Direction
97 95 110 115 104 97 91 85 88 87 80 76 80 111 146 160 168 165 161 177 309 324 345 349 340 302 278 282 342 60 55 52 47 39 38 13 357 0 359 3 3 5 7 6 357 340 281 246 19 330 228 159 10 343 341 341 344 330 335 36 47 42 44 35 32 30 352 349 348 344 352 350 351 18 14 43 71 70 69 73 70 67 67 69 71 65 59 51
100 102 118 118 108 101 95 93 92 85 77 71 66 90 129 146 157 153 145 91 71 68 54 31 7 285 246 234 236 315 347 45 44 37 22 10 9 8 6 9 7 5 7 9 360 358 12 20 356 319 318 70 349 11 21 344 350 358 14 54 57 46 61 51 42 29 4 353 339 348 351 349 10 24 15 31 58 50 47 70 78 71 69 71 65 60 57 50
107 113 125 121 110 100 96 96 86 77 71 65 59 80 111 126 132 118 116 98 75 53 38 30 20 342 231 222 227 280 285 30 38 24 7 7 9 6 6 9 10 8 2 352 335 341 354 329 324 330 49 60 37 41 37 349 346 23 28 64 47 42 71 56 45 27 1 352 344 356 347 360 37 35 18 28 47 44 37 47 68 71 70 70 64 61 59 55
113 122 129 121 107 98 97 92 81 71 62 59 66 87 104 107 104 90 83 31 331 325 10 30 27 32 137 221 232 269 281 3 35 5 356 3 6 5 9 10 12 13 359 343 316 300 285 271 322 26 67 49 63 56 42 17 12 41 39 68 33 31 71 49 45 27 354 354 3 3 341 10 61 49 40 46 50 46 39 45 56 69 72 70 67 64 63 61
118 128 131 117 102 98 98 91 79 68 62 70 86 100 104 101 94 61 35 9 333 326 59 56 42 50 74 78 239 250 270 303 12 351 351 358 3 5 13 16 16 14 2 352 345 329 310 181 128 49 71 37 49 54 40 39 51 78 60 70 48 42 69 51 47 26 0 7 16 7 342 2 70 55 49 65 72 58 44 52 55 62 66 67 67 66 66 63
125 136 133 115 100 98 99 93 82 77 79 84 91 99 102 99 86 49 38 39 41 77 115 90 72 69 75 70 63 53 85 96 351 345 348 353 4 11 17 18 14 14 12 18 29 21 24 75 62 38 71 54 49 55 44 40 39 85 73 66 63 58 77 69 49 22 4 30 18 358 350 38 82 68 60 74 80 77 65 64 65 65 65 67 68 65 63 63
130 138 131 115 103 100 99 95 90 92 91 85 85 87 90 87 71 52 43 44 48 66 116 136 94 80 85 82 66 61 75 62 352 344 347 357 14 17 17 13 16 23 28 31 31 34 34 37 44 40 62 60 61 65 53 52 48 66 92 76 82 74 70 64 46 22 1 41 22 352 18 76 86 85 78 81 87 89 84 80 80 78 74 72 70 65 62 63
131 134 125 114 103 99 98 101 100 102 97 80 75 74 76 70 59 54 46 45 48 59 77 82 91 85 83 97 62 60 64 13 347 344 348 14 25 19 21 15 23 36 37 36 32 34 35 29 31 27 62 54 60 63 31 60 59 39 69 89 98 88 63 53 39 24 3 46 17 350 62 86 90 98 88 90 100 98 96 93 89 87 82 75 70 67 62 61
130 125 118 113 101 96 100 107 105 102 100 75 67 66 64 59 51 45 41 48 55 61 71 68 63 54 17 312 27 64 33 344 341 343 356 21 25 29 36 21 27 46 42 39 35 33 34 24 13 19 78 65 61 60 17 52 60 15 8 347 74 85 70 61 45 27 357 45 10 349 88 110 115 106 85 96 108 107 105 99 97 96 90 83 78 71 64 61
123 117 112 110 96 95 106 111 102 99 104 90 72 54 49 49 42 40 42 57 72 73 74 70 65 62 51 24 73 71 1 341 348 349 359 13 22 36 37 25 34 54 49 43 36 30 25 10 349 13 83 74 72 61 31 60 91 355 11 307 65 99 85 59 52 35 356 33 8 349 90 114 124 102 92 117 120 118 114 108 108 103 99 97 93 83 71 63
115 115 113 107 98 103 109 107 102 104 107 99 76 42 36 38 34 42 59 72 80 79 78 77 73 69 66 63 71 62 349 350 357 355 2 3 19 32 27 26 41 56 56 50 35 24 15 10 8 58 87 53 73 70 59 94 230 92 94 278 46 116 107 53 42 33 358 27 3 343 92 88 63 84 121 143 136 127 121 118 116 109 109 107 105 102 88 74
115 119 116 110 107 112 110 108 110 106 104 95 70 39 24 28 39 52 73 79 75 72 76 69 64 74 70 62 58 31 357 3 3 3 9 358 12 31 22 33 52 56 59 54 34 23 16 19 36 56 35 269 122 107 92 247 251 74 95 259 9 14 113 70 52 31 0 24 356 338 100 74 60 103 130 143 140 131 125 121 118 112 113 112 112 111 103 92
120 119 114 112 113 116 113 114 114 103 96 83 69 57 42 40 52 59 73 75 62 64 81 70 61 72 73 64 55 37 31 19 12 8 15 17 31 45 35 45 61 60 61 61 40 27 18 29 55 59 24 28 121 141 301 274 13 49 358 337 12 335 6 52 57 28 13 24 1 352 47 73 96 124 138 147 145 136 131 124 124 120 118 121 121 127 125 111
115 113 107 109 113 117 119 119 112 102 91 84 80 74 69 66 65 66 62 60 55 52 81 83 70 65 64 91 92 47 36 23 20 11 16 31 49 60 56 56 64 67 67 64 53 42 36 42 69 79 39 44 111 191 248 241 46 33 355 23 28 345 339 353 30 23 17 14 4 5 328 125 131 144 148 155 155 142 132 129 136 133 134 149 156 184 169 155
110 105 98 106 116 119 123 119 109 98 90 91 91 83 83 81 68 65 66 66 66 50 54 62 39 56 74 100 106 40 25 19 19 9 7 21 29 46 71 64 61 74 80 75 69 66 60 54 60 71 33 32 86 200 221 106 54 31 7 9 14 357 321 327 20 26 17 1 359 357 316 131 139 150 154 164 161 144 133 142 153 148 166 187 178 203 248 275
106 96 97 110 117 118 118 112 102 93 82 86 100 92 93 84 55 56 69 68 59 48 44 9 352 54 95 77 99 25 21 18 11 3 2 15 23 29 78 109 60 57 90 70 52 116 96 71 64 69 41 26 23 342 174 74 32 24 19 337 342 349 313 312 11 21 16 359 350 336 297 120 133 147 156 169 160 145 139 151 164 165 196 215 209 237 282 303
103 103 111 115 114 110 107 101 96 93 88 87 90 89 83 66 43 50 52 37 48 55 57 20 15 87 83 36 49 1 6 9 6 5 2 12 25 19 20 182 166 249 249 39 27 18 85 56 54 73 43 38 23 1 68 52 343 350 2 329 333 336 311 310 339 356 7 5 340 314 305 97 119 145 153 163 160 153 147 158 172 181 221 232 251 276 273 270
114 122 123 119 113 108 103 98 95 92 89 87 83 83 82 72 66 63 48 33 44 63 54 20 13 98 67 20 19 340 338 350 7 10 6 11 15 358 330 297 281 229 217 38 25 18 41 32 43 57 34 40 33 24 63 24 307 317 330 323 330 326 310 315 325 338 358 357 327 304 316 109 124 145 147 157 163 157 154 160 175 195 234 246 267 274 264 279
130 134 133 126 117 110 103 95 87 78 71 69 60 63 74 69 64 56 45 47 56 40 47 6 6 111 90 7 355 333 320 327 7 12 11 5 348 334 310 303 356 39 142 80 33 25 32 44 41 40 26 23 23 31 33 321 289 290 296 312 329 319 304 313 322 338 356 344 312 307 332 126 140 148 146 158 164 161 158 156 175 211 242 272 284 277 282 310
137 142 141 132 119 112 99 47 2 349 330 321 328 332 309 178 58 41 33 44 54 53 63 29 42 93 89 2 350 341 319 13 32 15 7 359 333 322 334 328 58 57 57 102 47 31 38 60 46 18 10 12 12 15 3 333 282 270 286 323 322 308 301 312 318 336 356 337 289 298 327 130 143 152 149 159 167 164 164 172 196 212 272 295 284 283 300 324
138 147 148 138 123 104 358 325 329 331 332 342 323 322 311 324 64 125 37 53 44 34 66 69 73 87 63 350 352 345 313 61 39 16 6 4 343 309 347 356 37 54 60 103 96 66 50 57 47 2 353 346 333 352 355 342 278 231 299 329 319 315 312 308 308 332 344 320 282 307 341 127 140 146 147 163 178 178 180 197 215 218 284 281 278 292 311 322
140 150 157 153 149 320 321 324 350 41 65 66 62 55 60 83 116 142 154 91 40 3 62 79 74 78 54 17 2 348 327 24 25 14 4 4 15 20 335 10 55 38 31 75 123 75 56 51 22 352 335 325 300 18 358 341 309 175 25 334 320 333 320 300 304 330 331 311 292 328 347 129 137 135 147 165 173 168 146 137 209 248 269 274 291 315 323 320
145 155 171 192 297 320 355 52 75 88 92 89 85 86 100 116 130 146 159 109 90 353 49 64 63 57 34 37 8 2 41 32 4 7 360 355 18 29 330 26 66 55 33 48 70 61 64 42 3 327 315 346 20 39 9 340 340 77 31 352 324 332 334 304 312 322 317 302 278 319 341 131 134 139 145 143 143 142 132 144 218 234 247 265 301 325 321 322
159 168 184 228 0 28 66 82 92 97 101 109 107 111 128 129 134 155 211 107 101 64 69 49 73 57 42 43 359 6 68 49 3 1 2 3 2 320 340 29 52 70 66 74 89 85 86 16 336 308 332 7 8 37 21 343 348 111 66 15 332 322 326 304 306 316 312 297 272 325 310 171 164 179 169 157 177 167 161 212 244 242 247 276 319 331 329 332
172 171 169 211 75 87 86 82 99 109 102 102 113 125 133 132 153 338 355 141 89 119 173 218 147 50 30 359 354 353 107 55 35 16 8 17 7 323 11 355 332 58 92 110 100 91 87 206 308 325 6 13 2 39 31 348 335 272 38 17 331 312 314 300 303 315 313 291 343 3 329 237 172 186 185 168 191 191 178 215 249 252 267 314 339 340 338 332
178 175 145 275 278 260 238 122 130 130 108 101 134 144 140 123 322 19 28 199 76 65 277 153 217 15 358 339 347 17 132 24 29 26 23 22 14 8 29 329 139 62 54 69 83 108 69 43 357 4 12 10 5 41 52 20 341 296 323 349 317 301 298 289 298 309 310 304 310 19 7 317 210 191 188 173 196 206 196 218 245 265 304 342 350 343 336 329
204 222 291 291 287 293 290 204 154 154 114 158 161 158 157 75 18 41 56 196 8 274 343 23 331 9 0 340 354 121 130 320 325 30 24 6 351 215 41 10 72 64 69 71 27 95 47 38 32 13 6 16 5 351 33 47 345 283 308 321 304 292 285 279 291 283 270 312 300 40 29 314 277 192 174 172 200 215 208 225 253 317 333 349 351 340 333 332
239 256 290 291 277 279 308 129 153 192 290 176 173 177 197 273 337 6 65 196 291 274 0 25 347 21 5 346 19 85 137 315 304 10 355 351 358 253 158 26 358 352 27 135 202 326 35 60 52 4 353 13 348 317 319 56 241 274 296 304 293 287 279 269 273 264 268 324 296 6 17 308 283 1 156 171 204 215 211 244 316 336 337 346 343 337 338 337
258 268 294 298 281 254 215 175 187 234 204 164 171 191 235 288 317 22 342 241 321 61 15 354 171 17 342 327 33 62 52 8 47 331 328 352 30 28 124 38 332 311 340 1 109 153 106 57 57 35 22 345 318 305 300 254 240 271 292 297 290 284 272 250 228 245 274 285 274 1 16 324 295 312 161 185 217 221 270 325 325 327 335 340 335 337 344 341
311 290 294 291 243 156 169 202 240 218 166 165 176 193 258 301 353 54 276 240 97 74 315 349 228 308 324 283 54 38 36 43 24 329 321 85 21 17 107 55 311 251 328 25 66 117 131 60 10 106 93 303 293 286 265 230 247 273 297 302 296 280 259 242 201 203 292 265 282 12 15 358 304 272 136 167 188 173 308 306 305 320 332 334 337 345 346 343
0 329 306 286 223 190 160 203 204 177 162 167 169 156 32 306 315 177 226 232 84 309 295 36 347 296 348 80 70 12 26 50 11 359 0 35 8 11 47 30 332 296 209 52 55 89 149 153 137 91 76 298 298 288 220 207 250 288 310 309 314 283 245 279 207 124 355 274 32 8 0 357 276 268 106 146 158 133 195 275 303 319 328 331 345 348 343 344
30 14 352 337 230 213 206 172 166 161 164 167 164 156 334 294 283 143 220 266 321 315 177 97 84 308 32 84 60 6 19 9 7 25 350 12 34 28 46 41 345 344 103 343 8 117 189 203 144 98 25 281 303 313 179 184 275 325 335 333 346 337 0 357 310 105 236 245 329 343 335 313 260 283 100 157 175 180 199 240 293 314 331 337 350 348 343 349
38 26 19 31 64 165 153 156 155 159 165 161 167 230 294 277 249 119 74 344 306 308 135 131 113 214 231 100 47 11 107 273 333 341 261 58 67 65 76 57 12 329 254 338 340 315 302 340 106 109 354 307 337 352 22 301 327 350 355 356 14 19 8 350 326 325 275 256 303 313 305 276 281 296 136 155 160 178 204 233 257 289 340 343 351 347 344 352
40 34 42 61 76 108 127 142 151 157 161 155 218 279 323 269 235 221 125 79 302 208 141 117 192 210 31 77 71 347 125 216 313 340 340 25 60 53 64 44 22 359 279 322 344 318 309 297 259 242 252 301 22 49 179 270 316 339 7 15 41 69 44 314 310 316 298 293 302 300 279 270 303 279 165 154 148 182 215 229 248 298 354 350 349 346 347 351
43 39 52 71 75 97 122 142 154 149 145 262 255 231 258 207 155 153 173 135 133 175 150 143 224 206 65 83 138 237 103 142 304 359 14 18 31 18 355 6 14 9 322 315 18 306 278 251 184 22 18 67 76 95 263 286 290 292 29 51 42 79 172 238 255 255 274 294 299 294 219 243 286 152 148 156 178 227 252 264 309 341 351 347 345 347 348 347
40 36 44 53 49 71 122 146 152 126 32 303 250 229 244 190 126 29 61 157 139 153 161 173 255 240 140 132 157 238 190 135 309 9 50 41 27 36 58 21 2 13 37 16 8 358 302 260 165 93 21 35 86 99 331 350 306 300 348 9 355 97 156 236 264 258 264 281 290 309 289 288 329 114 174 178 223 282 301 324 343 341 340 341 343 346 343 347
40 41 40 29 20 31 147 169 162 119 335 313 303 232 210 188 265 4 18 315 84 86 188 191 315 9 110 119 94 2 289 126 157 265 104 115 41 27 84 119 354 12 78 107 60 93 313 281 209 170 130 334 77 79 41 3 347 340 326 288 309 97 123 229 281 296 297 276 281 308 301 305 324 298 226 238 288 300 310 340 338 333 340 341 341 348 342 343
85 88 48 19 8 17 143 154 150 97 297 308 91 145 204 286 294 32 14 326 1 202 237 208 35 53 65 2 135 329 338 24 124 69 104 175 260 315 56 103 64 33 92 109 85 122 201 286 246 178 140 152 129 79 59 342 337 8 133 232 334 93 241 291 313 312 310 309 304 304 309 300 279 280 313 314 310 309 320 346 341 337 345 341 338 346 340 337
172 210 46 10 0 68 128 138 168 302 276 235 138 156 143 78 76 54 19 330 300 269 235 91 67 85 54 13 192 217 9 30 352 328 107 171 285 293 242 171 126 102 89 85 36 334 190 178 267 195 115 131 166 126 148 239 331 359 94 108 98 166 218 261 336 253 248 309 307 311 324 298 243 312 325 308 310 326 337 351 344 340 345 339 338 345 335 334
227 236 345 358 21 113 95 78 3 6 25 20 103 135 313 105 109 77 42 357 282 262 118 101 135 135 82 8 282 334 105 110 331 303 161 143 294 321 50 42 95 92 62 64 10 317 301 227 271 350 90 121 176 285 298 164 148 120 142 168 223 179 140 160 214 186 156 252 292 309 308 282 263 329 294 279 311 344 356 355 337 336 342 333 337 348 333 329
283 202 342 351 131 125 62 53 37 36 92 86 73 67 15 144 118 107 101 65 269 249 233 63 84 112 98 107 260 342 214 204 118 326 308 74 61 1 42 24 40 53 28 38 321 320 315 270 285 298 297 247 151 355 357 44 118 125 152 186 162 132 93 323 281 150 126 182 223 289 292 280 273 256 233 267 335 4 21 0 335 335 337 328 334 348 327 320
275 205 339 339 183 195 13 59 44 11 74 94 56 57 49 158 114 117 173 163 234 254 238 74 59 60 57 56 117 128 237 215 145 165 238 94 58 23 41 32 53 65 42 1 105 75 38 299 283 278 278 17 60 18 19 28 63 99 126 160 133 143 169 218 268 262 189 239 234 235 268 275 255 208 224 320 359 19 33 11 339 331 329 322 328 340 320 313
282 167 5 12 178 234 11 87 59 27 63 121 258 26 29 83 110 133 223 200 226 282 202 101 38 49 50 17 82 157 246 260 135 65 86 95 59 52 92 85 77 86 86 235 113 81 84 228 253 271 265 116 34 346 16 20 25 82 183 192 170 168 171 168 171 76 326 248 236 219 254 266 243 199 273 348 1 6 23 14 340 323 319 318 321 329 319 313
60 72 23 34 44 358 6 135 116 90 115 150 127 78 10 3 70 109 235 195 235 302 115 120 64 94 97 5 357 91 67 47 81 69 74 91 75 117 128 92 86 82 83 118 50 36 326 210 272 302 307 332 338 331 352 357 307 240 209 186 179 146 113 98 104 88 342 225 198 198 256 259 253 290 317 332 341 340 345 358 338 316 312 317 319 324 319 313
103 41 55 51 36 39 77 220 134 126 149 139 117 144 171 77 65 231 281 51 340 329 70 103 42 85 95 34 7 43 52 253 106 97 91 71 102 183 180 130 127 57 80 84 29 346 261 274 297 319 328 330 321 308 314 324 288 260 166 162 170 149 141 143 132 140 251 222 191 208 260 272 284 297 305 318 327 324 326 336 325 311 312 313 316 322 313 308
153 8 159 80 22 51 88 273 111 121 152 152 129 172 172 129 145 205 325 342 290 346 65 99 26 73 99 126 180 180 182 192 27 82 194 146 127 147 162 167 177 113 100 82 24 16 263 274 251 236 247 266 279 282 295 314 298 281 242 186 177 168 169 158 132 210 228 225 229 238 254 276 289 295 302 313 316 315 319 324 319 314 312 309 310 315 308 304
202 267 176 188 343 32 55 61 100 112 161 172 148 152 152 132 140 156 342 318 209 346 32 54 33 159 144 155 193 189 173 155 87 97 217 155 111 108 157 179 175 147 135 132 161 149 269 269 243 235 246 252 268 279 288 295 279 272 266 223 180 172 177 172 199 227 229 345 269 254 247 272 286 293 301 306 308 311 315 317 316 310 306 310 314 310 304 303
33 156 161 157 153 41 53 135 127 104 114 129 94 134 144 144 163 176 172 27 355 263 216 51 248 214 178 142 176 169 160 185 190 165 161 171 134 134 171 194 169 154 152 161 168 131 293 267 239 224 264 267 273 275 276 274 263 258 260 246 202 179 183 196 221 233 215 224 258 268 276 278 282 289 295 297 301 311 311 307 302 299 305 312 311 303 299 299
66 82 29 294 91 103 315 283 124 114 104 101 127 175 167 168 174 172 116 104 275 230 196 204 218 204 181 138 119 171 173 198 225 208 159 160 186 187 188 193 156 160 173 173 155 128 191 245 282 289 277 281 278 272 266 259 259 260 255 252 238 205 197 210 231 235 225 235 253 271 281 277 276 281 286 289 293 297 298 296 295 300 306 307 300 294 293 294
148 133 141 111 84 85 346 317 132 137 126 67 184 181 184 181 176 161 128 155 177 175 180 207 173 157 149 153 175 213 157 121 200 212 169 158 194 215 204 189 143 162 195 181 136 142 180 202 36 308 292 291 277 267 262 251 259 269 265 256 248 236 222 223 234 235 233 246 254 264 274 275 272 269 269 276 291 299 298 296 297 300 300 299 293 284 284 291
141 142 143 123 96 70 356 41 131 155 157 227 207 171 197 199 175 150 114 95 107 148 171 182 137 121 104 183 200 190 79 81 104 134 142 152 187 189 175 138 122 150 184 181 128 156 171 250 317 39 311 292 285 302 296 285 279 276 274 265 248 241 235 225 226 217 213 238 258 263 266 271 274 266 264 278 295 298 298 299 296 291 286 288 285 275 274 283
120 117 169 101 87 298 277 130 246 265 174 224 184 143 195 193 153 134 120 130 99 87 33 328 143 137 140 197 202 172 83 77 92 84 54 46 217 133 119 97 105 151 169 155 144 171 158 249 309 23 295 279 312 331 311 307 312 284 262 251 233 232 238 235 236 226 215 225 252 258 255 265 283 297 289 292 299 295 295 297 290 285 285 279 271 263 267 276